KC5AYO Weather Reports


Display with metric or nautical units.
time (UTC)temp
F
wind
direction
speed
MPH
gust
MPH
rain 1hr
in
rain 24hr
in
rain mn
in
humidity
%
barometer
mb
20260831041040 74 132 0.0 0.0 0.00 0.00 0.00 93 1016.3
20260831040534 73 132 0.0 0.0 0.00 0.00 0.00 92 1016.2
20260831040033 73 132 0.0 0.0 0.00 0.00 0.00 92 1016.2
20260831035532 73 132 0.0 0.0 0.00 0.00 0.00 92 1016.2
20260831035033 73 132 0.0 0.0 0.00 0.00 0.00 91 1016.3
20260831034532 73 132 0.0 0.0 0.00 0.00 0.00 91 1016.4
20260831034032 73 132 0.0 0.0 0.00 0.00 0.00 91 1016.3
20260831033532 74 132 0.0 0.0 0.00 0.00 0.00 90 1016.5
20260831033031 74 132 0.0 0.0 0.00 0.00 0.00 91 1016.4
20260831032531 74 132 0.0 0.0 0.00 0.00 0.00 91 1016.4
20260831032031 74 132 0.0 0.0 0.00 0.00 0.00 91 1016.4
20260831031531 74 132 0.0 0.0 0.00 0.00 0.00 91 1016.3
20260831031031 74 132 0.0 0.0 0.00 0.00 0.00 90 1016.3
20260831030531 75 132 0.0 0.0 0.00 0.00 0.00 90 1016.4
20260831030031 75 132 0.0 0.0 0.00 0.00 0.00 90 1016.4
20260831025531 75 132 0.0 0.0 0.00 0.00 0.00 90 1016.4
20260831025030 75 132 0.0 0.0 0.00 0.00 0.00 89 1016.3
20260831024531 75 132 0.0 0.0 0.00 0.00 0.00 89 1016.3
20260831024033 75 132 0.0 0.0 0.00 0.00 0.00 88 1016.3
20260831023532 76 132 0.0 0.0 0.00 0.00 0.00 88 1016.3
20260831023029 76 132 0.0 0.0 0.00 0.00 0.00 88 1016.3
20260831022529 76 132 0.0 0.0 0.00 0.00 0.00 88 1016.3
20260831022029 76 132 0.0 0.0 0.00 0.00 0.00 88 1016.4
20260831021536 76 132 0.0 0.0 0.00 0.00 0.00 88 1016.3
20260831021029 76 132 0.0 0.0 0.00 0.00 0.00 87 1016.3
20260831020529 76 132 0.0 0.0 0.00 0.00 0.00 87 1016.4
20260831020028 76 132 0.0 0.0 0.00 0.00 0.00 87 1016.3
20260831015529 76 132 0.0 0.0 0.00 0.00 0.00 87 1016.3
20260831015028 76 132 0.0 0.0 0.00 0.00 0.00 86 1016.3
20260831014528 76 132 0.0 0.0 0.00 0.00 0.00 86 1016.3
20260831014028 76 132 0.0 0.0 0.00 0.00 0.00 86 1016.3
20260831013531 76 132 0.0 0.0 0.00 0.00 0.00 85 1016.2
20260831013028 76 132 0.0 0.0 0.00 0.00 0.00 85 1016.0
20260831012527 76 132 0.0 0.0 0.00 0.00 0.00 85 1016.1
20260831012026 77 132 0.0 0.0 0.00 0.00 0.00 84 1016.1
20260831011529 77 132 0.0 0.0 0.00 0.00 0.00 84 1016.1
20260831011027 77 132 0.0 0.0 0.00 0.00 0.00 82 1016.1
20260831010526 77 132 0.0 0.0 0.00 0.00 0.00 82 1016.1
20260831010026 77 132 0.0 0.0 0.00 0.00 0.00 80 1016.1
20260831005526 77 132 0.0 0.0 0.00 0.00 0.00 80 1016.0
20260831005028 78 132 0.0 0.0 0.00 0.00 0.00 78 1015.9
20260831004526 78 132 0.0 0.0 0.00 0.00 0.00 77 1015.8
20260831004030 79 132 0.0 0.0 0.00 0.00 0.00 77 1015.8
20260831003526 79 132 0.0 0.0 0.00 0.00 0.00 76 1015.6
20260831003025 79 132 0.0 0.0 0.00 0.00 0.00 77 1015.6
20260831002525 79 132 0.0 0.0 0.00 0.00 0.00 77 1015.7
20260831002025 80 132 0.0 0.0 0.00 0.00 0.00 75 1015.7
20260831001525 80 132 0.0 0.0 0.00 0.00 0.00 75 1015.7
20260831001028 80 132 0.0 0.0 0.00 0.00 0.00 75 1015.7
20260831000525 81 132 0.0 0.0 0.00 0.00 0.00 74 1015.7
20260831000036 81 132 0.0 0.0 0.00 0.00 0.00 74 1015.5
20260830235525 81 132 0.0 0.0 0.00 0.00 0.00 73 1015.6
20260830235026 81 132 0.0 0.0 0.00 0.00 0.00 72 1015.5
20260830234524 82 132 0.0 0.0 0.00 0.00 0.00 73 1015.5
20260830234024 82 132 0.0 0.0 0.00 0.00 0.00 71 1015.4
20260830233528 82 132 0.0 0.0 0.00 0.00 0.00 71 1015.3
20260830233031 82 132 0.0 0.0 0.00 0.00 0.00 70 1015.4
20260830232523 83 132 0.0 0.0 0.00 0.00 0.00 69 1015.3
20260830232025 83 132 0.0 0.0 0.00 0.00 0.00 68 1015.4
20260830231529 84 132 0.0 2.0 0.00 0.00 0.00 67 1015.4
20260830231023 84 132 0.0 2.0 0.00 0.00 0.00 61 1015.4
20260830230522 84 132 0.0 1.0 0.00 0.00 0.00 60 1015.5
20260830230022 85 197 0.0 0.0 0.00 0.00 0.00 62 1015.5
20260830225522 85 197 0.0 2.0 0.00 0.00 0.00 60 1015.5
20260830225022 85 152 0.0 2.0 0.00 0.00 0.00 61 1015.4
20260830224522 86 121 0.0 2.0 0.00 0.00 0.00 61 1015.4
20260830224023 86 158 0.0 2.0 0.00 0.00 0.00 56 1015.5
20260830223520 87 118 0.0 0.0 0.00 0.00 0.00 59 1015.4
20260830223020 87 149 0.0 1.0 0.00 0.00 0.00 57 1015.4
20260830222519 87 147 0.0 2.0 0.00 0.00 0.00 57 1015.4
20260830222024 87 292 0.0 2.0 0.00 0.00 0.00 57 1015.3
20260830221519 87 218 0.0 2.0 0.00 0.00 0.00 57 1015.2
20260830221019 87 270 0.0 2.0 0.00 0.00 0.00 53 1015.3
20260830220519 88 146 0.0 2.0 0.00 0.00 0.00 53 1015.5
20260830220018 88 192 0.0 2.0 0.00 0.00 0.00 55 1015.4
20260830215518 88 199 0.0 2.0 0.00 0.00 0.00 52 1015.5
20260830215020 88 212 0.0 3.0 0.00 0.00 0.00 53 1015.5
20260830214516 88 219 0.0 3.0 0.00 0.00 0.00 53 1015.5
20260830214016 88 186 0.0 3.0 0.00 0.00 0.00 56 1015.6
20260830213516 88 288 0.0 3.0 0.00 0.00 0.00 55 1015.7
20260830213019 88 327 0.0 5.0 0.00 0.00 0.00 55 1015.7
20260830212515 88 269 0.0 5.0 0.00 0.00 0.00 51 1015.8
20260830212015 88 209 0.0 4.0 0.00 0.00 0.00 51 1015.8
20260830211516 88 126 0.0 3.0 0.00 0.00 0.00 52 1015.9
20260830211015 88 163 0.0 2.0 0.00 0.00 0.00 52 1015.8
20260830210514 88 165 0.0 3.0 0.00 0.00 0.00 52 1015.7
20260830210025 88 348 0.0 3.0 0.00 0.00 0.00 53 1015.8
20260830205518 88 301 0.0 2.0 0.00 0.00 0.00 56 1015.8
20260830205012 88 208 0.0 2.0 0.00 0.00 0.00 55 1016.2
20260830204512 88 103 0.0 2.0 0.00 0.00 0.00 57 1016.2
20260830204011 88 101 0.0 2.0 0.00 0.00 0.00 54 1016.2
20260830203513 88 281 0.0 2.0 0.00 0.00 0.00 57 1016.3
20260830203010 88 25 0.0 2.0 0.00 0.00 0.00 53 1016.5
20260830202510 88 290 0.0 2.0 0.00 0.00 0.00 56 1016.5
20260830202013 88 195 0.0 3.0 0.00 0.00 0.00 53 1016.5
20260830201509 89 148 0.0 3.0 0.00 0.00 0.00 51 1016.6
20260830201008 88 242 0.0 3.0 0.00 0.00 0.00 55 1016.6
20260830200507 88 93 0.0 2.0 0.00 0.00 0.00 56 1016.7
20260830200008 88 281 0.0 3.0 0.00 0.00 0.00 57 1016.8
20260830195507 88 304 1.0 3.0 0.00 0.00 0.00 54 1016.8
20260830195007 88 229 0.0 3.0 0.00 0.00 0.00 55 1016.8
20260830194509 88 299 0.0 2.0 0.00 0.00 0.00 58 1017.0
20260830194007 89 204 0.0 2.0 0.00 0.00 0.00 55 1017.0
20260830193508 89 163 0.0 3.0 0.00 0.00 0.00 55 1016.9
20260830193006 89 86 0.0 3.0 0.00 0.00 0.00 53 1017.0
20260830192504 89 308 0.0 3.0 0.00 0.00 0.00 55 1017.0
20260830192004 88 142 0.0 2.0 0.00 0.00 0.00 53 1017.0
20260830191504 87 253 0.0 1.0 0.00 0.00 0.00 56 1017.2
20260830191004 88 94 0.0 2.0 0.00 0.00 0.00 55 1017.2
20260830190504 88 296 0.0 3.0 0.00 0.00 0.00 57 1017.3
20260830190004 87 114 0.0 3.0 0.00 0.00 0.00 54 1017.4
20260830185506 87 250 0.0 2.0 0.00 0.00 0.00 53 1017.4
20260830185006 88 248 0.0 3.0 0.00 0.00 0.00 53 1017.5
20260830184503 89 205 0.0 3.0 0.00 0.00 0.00 51 1017.5
20260830184003 89 336 0.0 2.0 0.00 0.00 0.00 56 1017.5
20260830183502 88 219 0.0 2.0 0.00 0.00 0.00 53 1017.6
20260830183006 89 254 0.0 1.0 0.00 0.00 0.00 54 1017.7
20260830182502 88 309 0.0 2.0 0.00 0.00 0.00 53 1017.7
20260830182002 88 31 0.0 3.0 0.00 0.00 0.00 53 1017.8
20260830181502 89 306 0.0 3.0 0.00 0.00 0.00 56 1017.9
20260830181003 89 162 0.0 2.0 0.00 0.00 0.00 53 1017.9
20260830180502 89 114 0.0 2.0 0.00 0.00 0.00 53 1018.0
20260830180100 88 220 0.0 2.0 0.00 0.00 0.00 56 1018.1
20260830175559 88 308 0.0 3.0 0.00 0.00 0.00 54 1018.1
20260830175102 88 337 0.0 3.0 0.00 0.00 0.00 56 1018.1
20260830174558 88 284 0.0 3.0 0.00 0.00 0.00 56 1018.3
20260830174057 87 291 0.0 3.0 0.00 0.00 0.00 54 1018.3
20260830173555 87 313 0.0 3.0 0.00 0.00 0.00 59 1018.4
20260830173055 87 316 0.0 3.0 0.00 0.00 0.00 59 1018.5
20260830172556 87 320 0.0 2.0 0.00 0.00 0.00 58 1018.6
20260830172053 87 298 0.0 2.0 0.00 0.00 0.00 65 1018.7
20260830171605 86 322 0.0 2.0 0.00 0.00 0.00 62 1018.7
20260830171053 86 146 0.0 2.0 0.00 0.00 0.00 63 1018.8
20260830170550 85 290 0.0 2.0 0.00 0.00 0.00 64 1018.9
20260830170050 85 190 0.0 2.0 0.00 0.00 0.00 61 1018.9
20260830165549 85 303 0.0 2.0 0.00 0.00 0.00 65 1019.0
20260830165049 84 306 0.0 3.0 0.00 0.00 0.00 64 1019.0
20260830164600 85 100 0.0 3.0 0.00 0.00 0.00 63 1019.0
20260830164049 85 192 0.0 3.0 0.00 0.00 0.00 63 1019.0
20260830163548 85 276 0.0 2.0 0.00 0.00 0.00 64 1018.9
20260830163048 84 106 0.0 2.0 0.00 0.00 0.00 63 1019.0
20260830162545 84 241 0.0 0.0 0.00 0.00 0.00 65 1019.0
20260830162045 83 329 0.0 0.0 0.00 0.00 0.00 69 1018.9
20260830161543 82 171 0.0 2.0 0.00 0.00 0.00 68 1018.9
20260830161042 82 109 0.0 2.0 0.00 0.00 0.00 71 1018.9
20260830160540 81 211 0.0 0.0 0.00 0.00 0.00 71 1018.8
20260830160040 81 291 0.0 0.0 0.00 0.00 0.00 72 1019.0
20260830155538 80 308 0.0 1.0 0.00 0.00 0.00 74 1018.7
20260830155038 80 308 0.0 1.0 0.00 0.00 0.00 77 1018.8
20260830154537 79 5 0.0 0.0 0.00 0.00 0.00 77 1018.7
20260830154035 79 294 0.0 2.0 0.00 0.00 0.00 76 1018.8
20260830153534 79 303 0.0 2.0 0.00 0.00 0.00 76 1018.6
20260830153034 79 238 0.0 2.0 0.00 0.00 0.00 77 1018.7
20260830152532 78 298 0.0 2.0 0.00 0.00 0.00 78 1018.6
20260830152032 78 167 0.0 0.0 0.00 0.00 0.00 78 1018.6
20260830151530 78 217 0.0 2.0 0.00 0.00 0.00 77 1018.5
20260830151029 77 307 0.0 2.0 0.00 0.00 0.00 80 1018.6
20260830150530 77 325 0.0 2.0 0.00 0.00 0.00 81 1018.5
20260830150028 77 280 0.0 2.0 0.00 0.00 0.00 80 1018.4
20260830145531 77 275 0.0 2.0 0.00 0.00 0.00 82 1018.5
20260830145025 76 257 0.0 0.0 0.00 0.00 0.00 82 1018.5
20260830144524 76 209 0.0 0.0 0.00 0.00 0.00 81 1018.4
20260830144023 75 173 0.0 0.0 0.00 0.00 0.00 82 1018.3
20260830143522 75 186 0.0 0.0 0.00 0.00 0.00 82 1018.2
20260830143021 75 219 0.0 0.0 0.00 0.00 0.00 82 1018.3
20260830142519 74 254 0.0 0.0 0.00 0.00 0.00 84 1018.2
20260830142019 74 259 0.0 0.0 0.00 0.00 0.00 84 1018.2
20260830141531 73 259 0.0 0.0 0.00 0.00 0.00 84 1018.1
20260830141016 73 292 0.0 0.0 0.00 0.00 0.00 85 1018.1
20260830140514 73 292 0.0 0.0 0.00 0.00 0.00 86 1018.0
20260830140013 72 292 0.0 0.0 0.00 0.00 0.00 85 1018.1
20260830135512 72 281 0.0 2.0 0.00 0.00 0.00 86 1018.1
20260830135011 72 281 0.0 2.0 0.00 0.00 0.00 86 1018.2
20260830134517 72 272 0.0 0.0 0.00 0.00 0.00 87 1018.0
20260830134011 71 167 0.0 0.0 0.00 0.00 0.00 88 1018.0
20260830133508 71 167 0.0 0.0 0.00 0.00 0.00 88 1018.0
20260830133007 71 167 0.0 0.0 0.00 0.00 0.00 89 1018.1
20260830132508 71 167 0.0 0.0 0.00 0.00 0.00 89 1018.0
20260830132006 70 167 0.0 0.0 0.00 0.00 0.00 89 1018.1
20260830131505 70 167 0.0 0.0 0.00 0.00 0.00 90 1018.0
20260830131002 69 167 0.0 0.0 0.00 0.00 0.00 90 1018.0
20260830130501 69 167 0.0 2.0 0.00 0.00 0.00 90 1017.9
20260830130108 68 167 0.0 2.0 0.00 0.00 0.00 91 1017.9
20260830125559 68 82 0.0 0.0 0.00 0.00 0.00 92 1017.9
20260830125058 68 73 0.0 0.0 0.00 0.00 0.00 93 1017.9
20260830124558 67 73 0.0 0.0 0.00 0.00 0.00 94 1017.9
20260830124058 67 73 0.0 0.0 0.00 0.00 0.00 94 1017.9
20260830123558 66 9 0.0 0.0 0.00 0.00 0.00 95 1017.9
20260830123123 66 9 0.0 0.0 0.00 0.00 0.00 95 1017.9
20260830122555 65 9 0.0 0.0 0.00 0.00 0.00 95 1017.9
20260830122057 65 9 0.0 0.0 0.00 0.00 0.00 95 1017.9
20260830121602 65 9 0.0 0.0 0.00 0.00 0.00 95 1017.9
20260830121057 65 9 0.0 0.0 0.00 0.00 0.00 95 1017.9
20260830120554 64 9 0.0 0.0 0.00 0.00 0.00 95 1017.9
20260830120057 64 9 0.0 0.0 0.00 0.00 0.00 95 1017.9
20260830115553 64 9 0.0 0.0 0.00 0.00 0.00 94 1017.9
20260830115055 64 9 0.0 0.0 0.00 0.00 0.00 94 1017.9
20260830114605 64 9 0.0 0.0 0.00 0.00 0.00 94 1017.8
20260830114052 64 9 0.0 0.0 0.00 0.00 0.00 95 1017.8
20260830113551 64 9 0.0 0.0 0.00 0.00 0.00 94 1017.8
20260830113052 64 9 0.0 0.0 0.00 0.00 0.00 95 1017.8
20260830112550 64 30 0.0 0.0 0.00 0.00 0.00 95 1017.7
20260830112051 64 78 0.0 0.0 0.00 0.00 0.00 94 1017.5
20260830111550 64 78 0.0 0.0 0.00 0.00 0.00 94 1017.5
20260830111051 64 78 0.0 0.0 0.00 0.00 0.00 94 1017.4
20260830110550 64 52 0.0 0.0 0.00 0.00 0.00 94 1017.4
20260830110049 64 40 0.0 0.0 0.00 0.00 0.00 94 1017.2
20260830105549 64 341 0.0 0.0 0.00 0.00 0.00 94 1017.3
20260830105049 64 341 0.0 0.0 0.00 0.00 0.00 95 1017.3
20260830104554 64 341 0.0 0.0 0.00 0.00 0.00 94 1017.3
20260830104049 64 341 0.0 0.0 0.00 0.00 0.00 94 1017.3
20260830103549 64 341 0.0 0.0 0.00 0.00 0.00 94 1017.3
20260830103049 64 341 0.0 0.0 0.00 0.00 0.00 94 1017.3
20260830102549 64 341 0.0 0.0 0.00 0.00 0.00 94 1017.3
20260830102047 64 341 0.0 0.0 0.00 0.00 0.00 94 1017.3
20260830101550 64 341 0.0 0.0 0.00 0.00 0.00 94 1017.4
20260830101046 65 341 0.0 0.0 0.00 0.00 0.00 94 1017.4
20260830100547 65 341 0.0 0.0 0.00 0.00 0.00 94 1017.4
20260830100046 65 341 0.0 0.0 0.00 0.00 0.00 95 1017.4
20260830095546 64 341 0.0 0.0 0.00 0.00 0.00 94 1017.4
20260830095050 64 341 0.0 0.0 0.00 0.00 0.00 94 1017.4
20260830094546 64 341 0.0 0.0 0.00 0.00 0.00 94 1017.3
20260830094046 65 341 0.0 0.0 0.00 0.00 0.00 94 1017.3
20260830093545 65 341 0.0 0.0 0.00 0.00 0.00 94 1017.4
20260830093045 65 341 0.0 0.0 0.00 0.00 0.00 94 1017.5
20260830092549 65 341 0.0 0.0 0.00 0.00 0.00 95 1017.4
20260830092044 65 341 0.0 0.0 0.00 0.00 0.00 95 1017.3
20260830091544 65 341 0.0 0.0 0.00 0.00 0.00 94 1017.3
20260830091044 65 341 0.0 0.0 0.00 0.00 0.00 94 1017.3
20260830090544 65 341 0.0 0.0 0.00 0.00 0.00 94 1017.2
20260830090044 65 341 0.0 0.0 0.00 0.00 0.00 94 1017.3
20260830085543 64 341 0.0 0.0 0.00 0.00 0.00 94 1017.2
20260830085043 64 341 0.0 0.0 0.00 0.00 0.00 93 1017.2
20260830084556 65 341 0.0 0.0 0.00 0.00 0.00 93 1017.2
20260830084043 65 341 0.0 0.0 0.00 0.00 0.00 94 1017.2
20260830083543 64 341 0.0 0.0 0.00 0.00 0.00 94 1017.3
20260830083043 64 341 0.0 0.0 0.00 0.00 0.00 93 1017.2
20260830082542 64 341 0.0 0.0 0.00 0.00 0.00 93 1017.3
20260830082041 65 341 0.0 0.0 0.00 0.00 0.00 93 1017.3
20260830081552 65 341 0.0 0.0 0.00 0.00 0.00 94 1017.4
20260830081040 65 341 0.0 0.0 0.00 0.00 0.00 93 1017.4
20260830080540 65 341 0.0 0.0 0.00 0.00 0.00 93 1017.4
20260830080039 65 341 0.0 0.0 0.00 0.00 0.00 93 1017.5
20260830075539 65 341 0.0 0.0 0.00 0.00 0.00 94 1017.6
20260830075038 65 341 0.0 0.0 0.00 0.00 0.00 93 1017.5
20260830074540 65 341 0.0 0.0 0.00 0.00 0.00 93 1017.4
20260830074039 65 341 0.0 0.0 0.00 0.00 0.00 93 1017.6
20260830073537 66 341 0.0 0.0 0.00 0.00 0.00 93 1017.6
20260830073040 66 341 0.0 0.0 0.00 0.00 0.00 94 1017.6
20260830072536 65 341 0.0 0.0 0.00 0.00 0.00 93 1017.7
20260830072037 65 341 0.0 0.0 0.00 0.00 0.00 93 1017.7
20260830071549 65 341 0.0 0.0 0.00 0.00 0.00 93 1017.7
20260830071035 65 341 0.0 0.0 0.00 0.00 0.00 93 1017.8
20260830070535 65 341 0.0 0.0 0.00 0.00 0.00 93 1017.8
20260830070038 65 341 0.0 0.0 0.00 0.00 0.00 93 1017.9
20260830065534 65 341 0.0 0.0 0.00 0.00 0.00 93 1018.1
20260830065033 65 341 0.0 0.0 0.00 0.00 0.00 92 1018.2
20260830064533 65 341 0.0 0.0 0.00 0.00 0.00 92 1018.1
20260830064032 65 341 0.0 0.0 0.00 0.00 0.00 92 1018.2
20260830063531 66 341 0.0 0.0 0.00 0.00 0.00 92 1018.3
20260830063037 66 341 0.0 2.0 0.00 0.00 0.00 93 1018.4
20260830062531 66 341 0.0 2.0 0.00 0.00 0.00 93 1018.4
20260830062032 66 341 0.0 2.0 0.00 0.00 0.00 93 1018.3
20260830061529 66 341 0.0 0.0 0.00 0.00 0.00 93 1018.3
20260830061029 66 341 0.0 0.0 0.00 0.00 0.00 92 1018.3
20260830060533 66 341 0.0 0.0 0.00 0.00 0.00 92 1018.3
20260830060029 66 341 0.0 0.0 0.00 0.00 0.00 93 1018.3
20260830055529 66 341 0.0 0.0 0.00 0.00 0.00 93 1018.3
20260830055028 66 341 0.0 0.0 0.00 0.00 0.00 92 1018.2
20260830054532 66 341 0.0 2.0 0.00 0.00 0.00 92 1018.2
20260830054027 67 341 0.0 2.0 0.00 0.00 0.00 93 1018.3
20260830053528 67 341 0.0 0.0 0.00 0.00 0.00 93 1018.3
20260830053027 67 341 0.0 0.0 0.00 0.00 0.00 93 1018.3
20260830052526 67 341 0.0 0.0 0.00 0.00 0.00 92 1018.3
20260830052025 67 341 0.0 0.0 0.00 0.00 0.00 92 1018.3
20260830051525 67 341 0.0 0.0 0.00 0.00 0.00 92 1018.4
20260830051027 67 341 0.0 0.0 0.00 0.00 0.00 92 1018.4
20260830050524 67 341 0.0 0.0 0.00 0.00 0.00 92 1018.3
20260830050024 67 341 0.0 0.0 0.00 0.00 0.00 92 1018.3
20260830045523 68 341 0.0 0.0 0.00 0.00 0.00 93 1018.3
20260830045022 68 341 0.0 0.0 0.00 0.00 0.00 93 1018.3
20260830044522 68 341 0.0 0.0 0.00 0.00 0.00 93 1018.3
20260830044022 67 341 0.0 0.0 0.00 0.00 0.00 93 1018.2
20260830043522 67 341 0.0 0.0 0.00 0.00 0.00 92 1018.2
20260830043021 67 341 0.0 0.0 0.00 0.00 0.00 92 1018.1
20260830042520 67 341 0.0 0.0 0.00 0.00 0.00 92 1018.1
20260830042024 68 341 0.0 0.0 0.00 0.00 0.00 92 1018.1
20260830041524 68 341 0.0 0.0 0.00 0.00 0.00 92 1018.1